| time (UTC) | temp F | wind direction | speed knots | gust knots | rain 1hr in | rain 24hr in | rain mn in | humidity % | barometer mb |
| 20260510034530 | 61 | 0.0 | 0.0 | 0.00 | 0.04 | 0.04 | 80 | 1013.1 | |
| 20260510033518 | 61 | 0.0 | 0.0 | 0.00 | 0.04 | 0.04 | 82 | 1013.1 | |
| 20260510033410 | 64 | 0.0 | 0.0 | 0.00 | 0.04 | 0.04 | 73 | 1012.8 | |
| 20260510025521 | 65 | 0.0 | 0.0 | 0.00 | 0.04 | 0.04 | 71 | 1013.0 | |
| 20260510024546 | 65 | 0.0 | 0.0 | 0.00 | 0.04 | 0.04 | 71 | 1012.8 | |
| 20260510023530 | 64 | 0.0 | 0.0 | 0.00 | 0.04 | 0.04 | 73 | 1012.9 | |
| 20260510023406 | 63 | 0.0 | 0.0 | 0.00 | 0.04 | 0.04 | 81 | 1012.5 | |
| 20260510015518 | 63 | 0.0 | 0.0 | 0.00 | 0.04 | 0.04 | 80 | 1012.4 | |
| 20260510014522 | 64 | 0.0 | 0.0 | 0.00 | 0.04 | 0.04 | 78 | 1012.3 | |
| 20260510013526 | 65 | 0.0 | 0.0 | 0.00 | 0.04 | 0.04 | 76 | 1012.3 | |
| 20260510013402 | 70 | 0.0 | 0.0 | 0.00 | 0.04 | 0.04 | 65 | 1011.7 | |
| 20260510005529 | 72 | 0.0 | 0.0 | 0.00 | 0.04 | 0.04 | 58 | 1011.5 | |
| 20260510004517 | 74 | 0.0 | 0.0 | 0.00 | 0.04 | 0.04 | 54 | 1011.5 | |
| 20260510003522 | 75 | 0.0 | 0.0 | 0.00 | 0.04 | 0.04 | 52 | 1011.2 | |
| 20260510003357 | 78 | 219 | 0.0 | 1.7 | 0.00 | 0.04 | 0.04 | 47 | 1011.0 |
| 20260509235525 | 78 | 204 | 0.9 | 2.6 | 0.00 | 0.04 | 0.04 | 45 | 1011.0 |
| 20260509234530 | 78 | 224 | 0.9 | 2.6 | 0.00 | 0.04 | 0.04 | 44 | 1010.9 |
| 20260509233518 | 79 | 206 | 1.7 | 2.6 | 0.00 | 0.04 | 0.04 | 43 | 1011.0 |
| 20260509233413 | 80 | 257 | 2.6 | 5.2 | 0.00 | 0.04 | 0.04 | 40 | 1011.0 |
| 20260509225541 | 79 | 187 | 2.6 | 6.1 | 0.00 | 0.04 | 0.04 | 40 | 1011.0 |
| 20260509224526 | 80 | 222 | 2.6 | 6.1 | 0.00 | 0.04 | 0.04 | 42 | 1011.0 |
| 20260509223531 | 80 | 149 | 1.7 | 2.6 | 0.00 | 0.04 | 0.04 | 43 | 1010.7 |
| 20260509223406 | 81 | 235 | 1.7 | 6.1 | 0.00 | 0.04 | 0.04 | 40 | 1011.0 |
| 20260509215516 | 82 | 262 | 2.6 | 5.2 | 0.00 | 0.04 | 0.04 | 40 | 1010.8 |
| 20260509214521 | 82 | 265 | 1.7 | 7.0 | 0.00 | 0.04 | 0.04 | 38 | 1010.8 |
| 20260509213527 | 83 | 295 | 0.9 | 1.7 | 0.00 | 0.04 | 0.04 | 36 | 1010.8 |
| 20260509213401 | 81 | 298 | 0.9 | 3.5 | 0.00 | 0.04 | 0.04 | 36 | 1010.8 |
| 20260509205529 | 81 | 276 | 2.6 | 7.0 | 0.00 | 0.04 | 0.04 | 38 | 1010.9 |
| 20260509204518 | 81 | 281 | 2.6 | 6.1 | 0.00 | 0.04 | 0.04 | 40 | 1011.0 |
| 20260509203522 | 82 | 256 | 1.7 | 3.5 | 0.00 | 0.04 | 0.04 | 46 | 1011.1 |
| 20260509203409 | 82 | 251 | 0.9 | 2.6 | 0.00 | 0.04 | 0.04 | 43 | 1011.1 |
| 20260509202328 | 80 | 271 | 1.7 | 6.1 | 0.00 | 0.04 | 0.04 | 45 | 1011.3 |
| 20260509193038 | 79 | 275 | 2.6 | 6.1 | 0.00 | 0.04 | 0.04 | 51 | 1011.7 |
| 20260509192104 | 78 | 302 | 1.7 | 2.6 | 0.00 | 0.04 | 0.04 | 54 | 1011.7 |
| 20260509191028 | 79 | 248 | 1.7 | 3.5 | 0.00 | 0.04 | 0.04 | 55 | 1011.7 |
| 20260509190033 | 78 | 263 | 1.7 | 5.2 | 0.00 | 0.04 | 0.04 | 54 | 1011.9 |
| 20260509185021 | 78 | 286 | 1.7 | 2.6 | 0.00 | 0.04 | 0.04 | 55 | 1012.0 |
| 20260509184047 | 77 | 272 | 2.6 | 5.2 | 0.00 | 0.04 | 0.04 | 58 | 1011.9 |
| 20260509183031 | 76 | 268 | 0.9 | 5.2 | 0.00 | 0.04 | 0.04 | 61 | 1011.8 |
| 20260509182019 | 76 | 269 | 1.7 | 6.1 | 0.00 | 0.04 | 0.04 | 60 | 1011.9 |
| 20260509181024 | 75 | 283 | 0.9 | 2.6 | 0.00 | 0.04 | 0.04 | 60 | 1011.9 |
| 20260509180028 | 75 | 259 | 2.6 | 7.0 | 0.00 | 0.04 | 0.04 | 61 | 1012.1 |
| 20260509175017 | 74 | 256 | 3.5 | 6.1 | 0.00 | 0.04 | 0.04 | 64 | 1012.2 |
| 20260509174021 | 75 | 255 | 1.7 | 5.2 | 0.00 | 0.04 | 0.04 | 67 | 1012.1 |
| 20260509173027 | 75 | 299 | 1.7 | 6.1 | 0.00 | 0.04 | 0.04 | 63 | 1012.1 |
| 20260509172031 | 74 | 64 | 0.9 | 3.5 | 0.00 | 0.04 | 0.04 | 64 | 1012.3 |
| 20260509171020 | 73 | 258 | 0.9 | 3.5 | 0.00 | 0.04 | 0.04 | 66 | 1012.2 |
| 20260509170025 | 72 | 133 | 1.7 | 6.1 | 0.00 | 0.04 | 0.04 | 70 | 1012.3 |
| 20260509165030 | 72 | 262 | 2.6 | 7.0 | 0.00 | 0.04 | 0.04 | 70 | 1012.3 |
| 20260509164018 | 72 | 257 | 1.7 | 6.1 | 0.00 | 0.04 | 0.04 | 71 | 1012.4 |
| 20260509163044 | 72 | 275 | 2.6 | 8.7 | 0.00 | 0.04 | 0.04 | 71 | 1012.3 |
| 20260509162031 | 71 | 244 | 1.7 | 5.2 | 0.00 | 0.04 | 0.04 | 71 | 1012.4 |
| 20260509161033 | 72 | 253 | 1.7 | 2.6 | 0.00 | 0.04 | 0.04 | 70 | 1012.6 |
| 20260509160020 | 72 | 320 | 0.9 | 1.7 | 0.00 | 0.04 | 0.04 | 71 | 1012.3 |
| 20260509155045 | 70 | 302 | 1.7 | 5.2 | 0.00 | 0.04 | 0.04 | 74 | 1012.2 |
| 20260509154030 | 69 | 286 | 0.9 | 5.2 | 0.00 | 0.04 | 0.04 | 76 | 1012.0 |
| 20260509153018 | 69 | 291 | 0.9 | 5.2 | 0.00 | 0.04 | 0.04 | 75 | 1012.1 |
| 20260509152023 | 68 | 270 | 2.6 | 5.2 | 0.00 | 0.04 | 0.04 | 79 | 1012.2 |
| 20260509151028 | 67 | 79 | 0.9 | 1.7 | 0.00 | 0.04 | 0.04 | 79 | 1012.1 |
| 20260509150017 | 67 | 271 | 1.7 | 3.5 | 0.00 | 0.04 | 0.04 | 81 | 1011.9 |
| 20260509145021 | 67 | 250 | 0.9 | 3.5 | 0.00 | 0.04 | 0.04 | 83 | 1011.9 |
| 20260509144026 | 66 | 247 | 1.7 | 6.1 | 0.00 | 0.04 | 0.04 | 85 | 1011.9 |
| 20260509143031 | 67 | 271 | 0.9 | 3.5 | 0.00 | 0.04 | 0.04 | 84 | 1011.8 |
| 20260509142019 | 66 | 268 | 0.9 | 1.7 | 0.00 | 0.04 | 0.04 | 84 | 1011.6 |
| 20260509141044 | 65 | 298 | 0.9 | 2.6 | 0.00 | 0.04 | 0.04 | 86 | 1011.5 |
| 20260509140029 | 64 | 296 | 0.9 | 2.6 | 0.00 | 0.04 | 0.04 | 89 | 1011.5 |
| 20260509135017 | 63 | 256 | 1.7 | 3.5 | 0.00 | 0.04 | 0.04 | 92 | 1011.3 |
| 20260509134022 | 61 | 315 | 1.7 | 3.5 | 0.00 | 0.04 | 0.04 | 96 | 1011.4 |
| 20260509133027 | 60 | 280 | 1.7 | 2.6 | 0.00 | 0.04 | 0.04 | 99 | 1011.2 |
| 20260509132032 | 60 | 277 | 0.9 | 1.7 | 0.00 | 0.04 | 0.04 | 99 | 1011.1 |
| 20260509131040 | 59 | 338 | 0.9 | 1.7 | 0.00 | 0.04 | 0.04 | 99 | 1011.3 |
| 20260509130025 | 58 | 318 | 0.9 | 1.7 | 0.00 | 0.04 | 0.04 | 99 | 1010.9 |
| 20260509125030 | 58 | 293 | 0.9 | 1.7 | 0.00 | 0.04 | 0.04 | 99 | 1011.0 |
| 20260509124038 | 57 | 293 | 1.7 | 1.7 | 0.00 | 0.04 | 0.04 | 99 | 1010.9 |
| 20260509123023 | 57 | 280 | 0.0 | 0.9 | 0.00 | 0.04 | 0.04 | 99 | 1010.9 |
| 20260509122028 | 56 | 0.0 | 0.0 | 0.00 | 0.04 | 0.04 | 99 | 1010.8 | |
| 20260509121032 | 55 | 0.0 | 0.0 | 0.00 | 0.04 | 0.04 | 99 | 1010.9 | |
| 20260509120042 | 54 | 0.0 | 0.0 | 0.00 | 0.04 | 0.04 | 99 | 1010.9 | |
| 20260509115026 | 54 | 0.0 | 0.0 | 0.00 | 0.04 | 0.04 | 99 | 1010.6 | |
| 20260509114050 | 53 | 0.0 | 0.0 | 0.00 | 0.04 | 0.04 | 99 | 1010.3 | |
| 20260509113059 | 53 | 0.0 | 0.0 | 0.00 | 0.04 | 0.04 | 99 | 1010.3 | |
| 20260509112023 | 53 | 0.0 | 0.0 | 0.00 | 0.04 | 0.04 | 99 | 1010.2 | |
| 20260509111029 | 52 | 0.0 | 0.0 | 0.00 | 0.04 | 0.04 | 99 | 1010.2 | |
| 20260509110016 | 52 | 0.0 | 0.0 | 0.00 | 0.04 | 0.04 | 99 | 1009.8 | |
| 20260509105022 | 52 | 0.0 | 0.0 | 0.00 | 0.04 | 0.04 | 99 | 1009.8 | |
| 20260509104026 | 52 | 0.0 | 0.9 | 0.00 | 0.04 | 0.04 | 99 | 1009.8 | |
| 20260509103032 | 52 | 0.0 | 0.0 | 0.00 | 0.04 | 0.04 | 99 | 1009.7 | |
| 20260509102020 | 52 | 0.0 | 0.0 | 0.00 | 0.04 | 0.04 | 99 | 1009.5 | |
| 20260509101025 | 52 | 0.0 | 0.0 | 0.00 | 0.04 | 0.04 | 99 | 1009.4 | |
| 20260509100029 | 53 | 0.0 | 0.0 | 0.00 | 0.04 | 0.04 | 99 | 1009.4 | |
| 20260509095017 | 53 | 0.0 | 0.0 | 0.00 | 0.04 | 0.04 | 99 | 1009.5 | |
| 20260509094022 | 53 | 0.0 | 0.0 | 0.00 | 0.04 | 0.04 | 99 | 1009.5 | |
| 20260509093027 | 54 | 0.0 | 0.0 | 0.00 | 0.04 | 0.04 | 99 | 1009.7 | |
| 20260509092032 | 54 | 0.0 | 0.0 | 0.00 | 0.04 | 0.04 | 99 | 1009.6 | |
| 20260509091020 | 55 | 0.0 | 0.0 | 0.00 | 0.04 | 0.04 | 99 | 1009.6 | |
| 20260509090046 | 55 | 0.0 | 0.0 | 0.00 | 0.04 | 0.04 | 99 | 1009.8 | |
| 20260509085030 | 55 | 0.0 | 0.0 | 0.00 | 0.04 | 0.04 | 99 | 1010.0 | |
| 20260509084018 | 55 | 0.0 | 0.0 | 0.00 | 0.04 | 0.04 | 98 | 1010.1 | |
| 20260509083024 | 55 | 128 | 0.0 | 1.7 | 0.00 | 0.04 | 0.04 | 98 | 1010.1 |
| 20260509082028 | 55 | 0.0 | 0.0 | 0.01 | 0.04 | 0.04 | 98 | 1009.9 | |
| 20260509081016 | 55 | 0.0 | 0.0 | 0.02 | 0.04 | 0.04 | 97 | 1009.8 | |
| 20260509080042 | 56 | 43 | 0.0 | 0.9 | 0.02 | 0.04 | 0.04 | 97 | 1009.7 |
| 20260509075026 | 56 | 0.0 | 0.0 | 0.04 | 0.04 | 0.04 | 97 | 1009.7 | |
| 20260509074112 | 57 | 37 | 0.0 | 0.9 | 0.04 | 0.04 | 0.04 | 96 | 1009.6 |
| 20260509073039 | 57 | 33 | 0.0 | 0.9 | 0.04 | 0.04 | 0.04 | 94 | 1009.9 |
| 20260509072024 | 58 | 0.0 | 0.0 | 0.03 | 0.03 | 0.03 | 91 | 1010.2 | |
| 20260509071028 | 58 | 270 | 0.9 | 1.7 | 0.02 | 0.02 | 0.02 | 89 | 1010.4 |
| 20260509070016 | 60 | 288 | 1.7 | 3.5 | 0.02 | 0.02 | 0.02 | 85 | 1010.7 |
| 20260509065042 | 61 | 270 | 2.6 | 5.2 | 0.00 | 0.00 | 0.00 | 78 | 1010.2 |
| 20260509064026 | 61 | 303 | 0.9 | 1.7 | 0.00 | 0.00 | 0.00 | 77 | 1009.8 |
| 20260509063032 | 61 | 263 | 0.9 | 3.5 | 0.00 | 0.00 | 0.00 | 77 | 1009.9 |
| 20260509062019 | 61 | 208 | 0.9 | 3.5 | 0.00 | 0.00 | 0.00 | 76 | 1009.7 |
| 20260509061024 | 61 | 217 | 0.9 | 1.7 | 0.00 | 0.00 | 0.00 | 75 | 1009.9 |
| 20260509060030 | 61 | 222 | 0.9 | 1.7 | 0.00 | 0.00 | 0.00 | 76 | 1009.9 |
| 20260509055037 | 61 | 230 | 0.9 | 1.7 | 0.00 | 0.00 | 0.00 | 77 | 1009.8 |
| 20260509054022 | 61 | 144 | 0.9 | 2.6 | 0.00 | 0.00 | 0.00 | 77 | 1009.8 |
| 20260509053027 | 61 | 208 | 0.9 | 2.6 | 0.00 | 0.00 | 0.00 | 76 | 1010.0 |
| 20260509052032 | 61 | 111 | 0.9 | 2.6 | 0.00 | 0.00 | 0.00 | 76 | 1010.1 |
| 20260509051021 | 61 | 115 | 0.9 | 1.7 | 0.00 | 0.00 | 0.00 | 75 | 1010.0 |
| 20260509050026 | 61 | 86 | 0.0 | 1.7 | 0.00 | 0.00 | 0.00 | 77 | 1010.1 |
| 20260509045030 | 61 | 108 | 0.0 | 0.9 | 0.00 | 0.00 | 0.00 | 77 | 1010.1 |
| 20260509044018 | 61 | 56 | 0.0 | 0.9 | 0.00 | 0.00 | 0.00 | 76 | 1010.1 |
| 20260509043023 | 61 | 292 | 0.0 | 0.9 | 0.00 | 0.00 | 0.00 | 76 | 1010.5 |
| 20260509042028 | 60 | 208 | 0.0 | 0.9 | 0.00 | 0.00 | 0.00 | 77 | 1010.5 |
| 20260509041017 | 59 | 0.0 | 0.0 | 0.00 | 0.00 | 0.00 | 79 | 1010.4 | |
| 20260509040021 | 58 | 286 | 0.0 | 0.9 | 0.00 | 0.00 | 0.00 | 86 | 1010.7 |